K0VXP-1 Weather Reports


Display with metric or nautical units.
time (UTC)temp
F
wind
direction
speed
MPH
gust
MPH
rain 1hr
in
rain 24hr
in
rain mn
in
humidity
%
barometer
mb
20260502123029 30 74 4.0 6.0 0.00 0.01 0.00 69 1025.6
20260502121530 30 53 1.0 3.0 0.00 0.01 0.00 71 1025.6
20260502114531 29 81 3.0 8.0 0.00 0.01 0.00 71 1025.5
20260502113028 29 84 6.0 8.0 0.00 0.01 0.00 70 1025.4
20260502111532 30 77 6.0 8.0 0.00 0.01 0.00 69 1025.4
20260502110029 30 65 3.0 5.0 0.00 0.01 0.00 68 1025.6
20260502104539 30 65 2.0 4.0 0.00 0.01 0.00 66 1025.6
20260502103030 31 53 2.0 4.0 0.00 0.01 0.00 66 1025.3
20260502101534 31 29 3.0 4.0 0.00 0.01 0.00 67 1025.3
20260502071529 34 163 2.0 8.0 0.00 0.01 0.00 62 1024.7
20260502070033 34 47 4.0 9.0 0.00 0.01 0.00 59 1024.7
20260502064537 34 72 5.0 9.0 0.00 0.01 0.00 58 1024.5
20260502063029 35 65 5.0 8.0 0.00 0.01 0.00 56 1024.4
20260502061534 36 65 4.0 7.0 0.00 0.01 0.00 54 1024.4
20260502060032 37 84 3.0 5.0 0.00 0.01 0.00 52 1024.4
20260502054530 38 67 4.0 6.0 0.00 0.01 0.01 51 1024.2
20260502053030 39 0 1.0 5.0 0.00 0.01 0.01 49 1024.2
20260502051530 38 94 4.0 7.0 0.00 0.01 0.01 50 1024.0
20260502050031 39 52 4.0 6.0 0.00 0.01 0.01 47 1024.2
20260502044528 41 40 5.0 13.0 0.00 0.01 0.01 45 1024.0
20260502043030 39 52 7.0 11.0 0.00 0.01 0.01 47 1023.7
20260502041536 38 78 6.0 10.0 0.00 0.01 0.01 47 1023.6
20260502040032 38 79 6.0 11.0 0.00 0.01 0.01 46 1023.3
20260502034532 40 53 6.0 14.0 0.00 0.02 0.01 44 1023.0
20260502033031 39 38 8.0 12.0 0.00 0.02 0.01 46 1022.6
20260502031531 40 63 8.0 13.0 0.00 0.02 0.01 45 1022.4
20260502030029 40 57 7.0 11.0 0.00 0.02 0.01 44 1022.3
20260502024532 41 56 5.0 8.0 0.00 0.02 0.01 43 1022.2
20260502023032 43 55 5.0 9.0 0.00 0.02 0.01 40 1022.0
20260502021530 45 360 7.0 12.0 0.00 0.02 0.01 38 1021.7
20260502020028 46 51 4.0 9.0 0.00 0.02 0.01 38 1021.5
20260502014531 48 36 8.0 13.0 0.00 0.04 0.01 35 1021.4
20260502013032 50 32 6.0 11.0 0.00 0.04 0.01 34 1021.2
20260502011553 50 55 7.0 13.0 0.00 0.04 0.01 34 1021.0
20260502010031 48 53 9.0 17.0 0.00 0.04 0.01 35 1020.9
20260502004550 51 17 9.0 19.0 0.00 0.06 0.01 35 1020.7
20260502003029 52 45 9.0 15.0 0.00 0.06 0.01 34 1020.7
20260502001528 52 10 8.0 16.0 0.00 0.06 0.01 33 1020.6
20260502000032 51 342 11.0 21.0 0.00 0.06 0.01 36 1020.5
20260501234544 54 16 14.0 25.0 0.00 0.06 0.01 35 1020.3
20260501233033 56 24 10.0 19.0 0.00 0.06 0.01 27 1020.2
20260501231539 56 51 8.0 17.0 0.00 0.06 0.01 28 1020.2
20260501230030 56 22 10.0 18.0 0.00 0.06 0.01 29 1019.9
20260501224532 56 24 7.0 20.0 0.00 0.06 0.01 28 1019.8
20260501223032 56 355 9.0 14.0 0.00 0.06 0.01 29 1019.8
20260501221533 56 316 10.0 16.0 0.00 0.06 0.01 31 1020.0
20260501220039 56 48 9.0 15.0 0.00 0.06 0.01 31 1020.2
20260501214533 55 334 6.0 13.0 0.00 0.06 0.01 31 1020.4
20260501213036 56 336 9.0 15.0 0.00 0.06 0.01 34 1020.7
20260501211532 56 360 10.0 20.0 0.00 0.06 0.01 35 1020.7
20260501210029 54 360 3.0 11.0 0.00 0.06 0.01 34 1020.9
20260501204532 52 323 3.0 13.0 0.00 0.06 0.01 38 1020.9
20260501203030 53 5 5.0 11.0 0.00 0.06 0.01 39 1021.1
20260501201532 52 333 6.0 13.0 0.00 0.06 0.01 40 1021.1
20260501200029 49 122 1.0 14.0 0.00 0.06 0.01 43 1021.3
20260501194532 50 76 4.0 12.0 0.00 0.06 0.01 43 1021.3
20260501193036 49 264 6.0 11.0 0.00 0.06 0.01 49 1021.5
20260501191534 48 304 8.0 13.0 0.00 0.06 0.01 47 1021.6
20260501190049 50 355 4.0 10.0 0.00 0.06 0.01 47 1021.7
20260501184536 48 325 2.0 11.0 0.00 0.06 0.01 49 1021.8
20260501183030 47 334 2.0 10.0 0.00 0.06 0.01 51 1021.9
20260501181530 46 265 7.0 11.0 0.00 0.06 0.01 57 1022.1
20260501180030 47 346 7.0 16.0 0.00 0.06 0.01 60 1022.2
20260501174529 44 12 4.0 14.0 0.00 0.06 0.01 66 1022.3
20260501173031 43 5 9.0 14.0 0.00 0.06 0.01 68 1022.3
20260501171528 42 342 6.0 13.0 0.00 0.06 0.01 69 1022.5
20260501170032 42 329 5.0 13.0 0.00 0.06 0.01 69 1022.4
20260501164532 44 342 8.0 13.0 0.00 0.06 0.01 67 1022.4
20260501163029 42 35 5.0 10.0 0.00 0.06 0.01 70 1022.5
20260501161530 40 53 5.0 13.0 0.00 0.06 0.01 71 1022.6
20260501160033 39 63 5.0 12.0 0.00 0.06 0.01 77 1022.4
20260501154552 38 31 5.0 12.0 0.00 0.06 0.01 75 1022.5
20260501153030 40 360 3.0 6.0 0.00 0.06 0.01 76 1022.4
20260501151529 39 0 1.0 7.0 0.00 0.06 0.01 79 1022.4
20260501150043 38 133 0.0 3.0 0.00 0.06 0.01 82 1022.4
20260501144531 36 0 1.0 3.0 0.00 0.06 0.01 82 1022.2
20260501143039 36 305 0.0 2.0 0.00 0.06 0.01 84 1022.3
20260501141554 36 55 0.0 2.0 0.01 0.06 0.01 87 1022.1